Location: Casilda
(33.0440°S, 61.1680°W)
Time: 09:06:24
(UTC-03:00)

ISS - Pass Details

Date: 15 December 2018
Orbit: 401 x 408 km, 51.6° (Epoch: 16 December)

Event Time Altitude Azimuth Distance (km) Brightness Sun altitude
Exits shadow 23:45:20 13° 195° (SSW) 1,338 -0.4 -30.9°
Drops below altitude 10° 23:46:18 10° 179° (S) 1,489 -0.2 -31.0°
Sets 23:49:16 0° 150° (SSE) 2,359 0.6 -31.2°
